Content
SEND FEEDBACK

Daily
Averages
Monthly
Summary
United States of America

EMPORIA, KANSAS


Home > North America > United States > Kansas
Elevation: 1204 feet     Latitude: 38 19N     Longitude: 096 11W

WEATHER
 
SELECT A DAY
Number of Records: 201,016;   Date Range: 1/1/95 - 11/21/14
 
SHARE

PRINT THIS DATA

[ ← Previous Day ]
WEATHER ALMANAC - APRIL 1, 2013
[ Next Day → ]
[ °C ]   °F
Weather ElementAverageHighLow
Temperature40.3 °F45 °F (2:53 am)35.1 °F (8:53 am)
Dewpoint24.9 °F36 °F (1:53 am)16 °F (1:53 pm)
Humidity56.6 %87 % (6:31 am)34 % (1:53 pm)
Barometer30.23 in30.31 in (12:53 pm)30.03 in (1:53 am)
Wind Speed12.3 mph20.7 mph (8:53 am)
Wind Gust26.5 mph (7:53 am)
Weather ElementAverage
Visibility10 mi
Wind DirectionNE (41.2 °)

Weather ElementTotal
Precipitation---
Heating Degree Days25 (Base 65)
Averaged from 25 records on April 1, 2013
WEATHER CONDITIONS BREAKOUT
WIND DIRECTION BREAKOUT
WEATHER BY HOUR - APRIL 1, 2013
[ °C ]   °F
Local TimeTemperatureDewpointHumidityBarometerVisibilityWind DirectionWind SpeedGust SpeedPrecipitationEventsConditions
1:53 AM44.1 °F36.0 °F73 %30.03 in10.0 miNorth (10°)8.1 mphMostly Cloudy
2:53 AM45.0 °F32.0 °F60 %30.06 in10.0 miNNE (30°)16.1 mphClear
3:53 AM42.1 °F32.0 °F67 %30.09 in10.0 miNNE (30°)16.1 mphClear
4:53 AM41.0 °F34.0 °F76 %30.13 in9.0 miNNE (30°)11.5 mphClear
5:53 AM39.0 °F33.1 °F79 %30.17 in10.0 miNNE (30°)19.6 mph25.3 mphClear
6:31 AM37.4 °F33.8 °F87 %30.18 in10.0 miNorth (10°)16.1 mphMostly Cloudy
6:53 AM37.0 °F32.0 °F82 %30.20 in10.0 miNNE (20°)16.1 mphOvercast
7:53 AM36.0 °F30.9 °F82 %30.25 in10.0 miNNE (30°)16.1 mph26.5 mphOvercast
8:53 AM35.1 °F28.9 °F78 %30.27 in10.0 miNNE (20°)20.7 mph24.2 mphOvercast
9:17 AM35.6 °F26.6 °F70 %30.26 in10.0 miNNE (30°)16.1 mphScattered Clouds
9:53 AM37.0 °F26.1 °F65 %30.28 in10.0 miNNE (30°)16.1 mphClear
10:53 AM39.0 °F21.0 °F49 %30.29 in10.0 miNorth (10°)15.0 mphMostly Cloudy
11:53 AM41.0 °F21.9 °F47 %30.28 in10.0 miNNE (30°)13.8 mph23.0 mphOvercast
12:53 PM41.0 °F19.9 °F43 %30.31 in10.0 miNNE (20°)11.5 mphOvercast
1:53 PM43.0 °F16.0 °F34 %30.30 in10.0 miNorth (350°)11.5 mphOvercast
2:53 PM44.1 °F18.0 °F35 %30.27 in10.0 miNNE (30°)12.7 mph19.6 mphOvercast
3:53 PM43.0 °F19.0 °F38 %30.25 in10.0 miNE (40°)12.7 mph23.0 mphOvercast
4:53 PM43.0 °F18.0 °F37 %30.25 in10.0 miNE (40°)10.4 mphOvercast
5:53 PM43.0 °F19.0 °F38 %30.24 in10.0 miNE (50°)10.4 mphOvercast
6:53 PM42.1 °F19.0 °F40 %30.23 in10.0 miENE (60°)9.2 mphOvercast
7:53 PM42.1 °F21.0 °F43 %30.24 in10.0 miENE (60°)6.9 mphOvercast
8:53 PM39.9 °F19.9 °F45 %30.27 in10.0 miCalmOvercast
9:53 PM39.9 °F21.0 °F47 %30.29 in10.0 miCalmOvercast
10:53 PM39.0 °F21.9 °F50 %30.30 in10.0 miNNE (30°)8.1 mphOvercast
11:53 PM37.9 °F21.0 °F51 %30.30 in10.0 miNE (40°)11.5 mphOvercast
Hourly data recorded from KEMP, located miles away from Emporia, Kansas







STORIES FROM OUR PARTNERS